Airport Information

KYKM - Yakima Air Terminal McAllister Field Airport

KYKM 241453Z 26007KT 10SM CLR 16/04 A2999 RMK AO2 SLP154 T01560039 58000


  • General Information

  • Coordinates: N 46°34'5"/ W 120°32'38"
  • Location: N/A
  • Surveyed Elevation: 1095 MSL

Operations

Flow Name Active Runways Conditions

Green background denotes normal operations.


Common Frequencies

Callsign Frequency Position Name

More at the Document Center


Charts